Weather in Taraskul'

Russia / Tyumen Oblast     57°00′27″N   65°24′29″E
temp.,
°C
wind,
m/s
gust,
m/s
humid.,
%
clouds,
%
prec.,
mm/h
press.,
hPa
HPBL,
m
18 april, sun
sun1823:00+4w38605 0.0 1018174
02:00+3w367282 0.0 1015114
05:00+3w41372100 0.0 1014436
08:00+5wnw61168100 0.0 1012968
11:00+4n8115599 0.1 10151581
14:00+2nne81142100 0.0 10211941
17:00+1nne79285 0.0 10251975
20:00−2nne59390 0.0 10291236
19 april, mon
mon1923:00−4ne410443 0.0 10311333
02:00−5nne38465 0.0 10331299
05:00−6nne35460 0.0 1034981
08:00−4n35407 0.0 10351324
11:00−1n3532100 0.0 10351920
14:00+1n4627100 0.0 10342268
17:00+1nne4628100 0.0 10342292
20:00−2ne24435 0.0 1034101
20 april, tue
tue2023:00−4ene22490 0.0 103636
02:00−5s11505 0.0 103625
05:00−5wsw23516 0.0 103676
08:000w353563 0.0 1035436
11:00+4w463092 0.0 10331376
14:00+7w57305 0.0 10301748
17:00+8wnw58345 0.0 10281767
20:00+4wnw36575 0.0 1028115
21 april, wed
wed2123:00+2wnw310666 0.0 1029200
02:00+1wnw39746 0.0 1029186
05:000nw278226 0.0 1030145
08:00+4nnw36705 0.0 1031358
11:00+8n355839 0.0 10321262
14:00+10n454798 0.0 10321742
17:00+10ne44516 0.0 10331229
20:00+6ene26695 0.0 1035130
22 april, thu
thu2223:00+3e22785 0.0 103625
02:00+2sse11815 0.0 103710
05:00+1se11845 0.0 103810
08:00+5ese12655 0.0 1039226
11:00+10e22485 0.0 1039847
14:00+13ese114017 0.0 10381472
17:00+13ese22395 0.0 10371661
20:00+9se36575 0.0 1038107